Regional Weather Roundup
Issued by NWS

Home | Current Version | Previous Version | Graphics & Text | Print | Product List | Glossary On
Versions: 1 2 3 4 5 6 7 8 9 10 11 12 13 14 15 16 17 18 19 20 21 22 23 24 25 26 27 28 29 30 31 32 33 34 35 36 37 38 39 40 41 42 43 44 45 46 47 48 49 50
000
ASUS43 KBIS 280410
RWRND

NORTH DAKOTA REGIONAL WEATHER ROUNDUP
NATIONAL WEATHER SERVICE BISMARCK ND
1000 PM CST TUE JAN 27 2015

NOTE: "FAIR" INDICATES FEW OR NO CLOUDS BELOW 12,000 FEET WITH NO
SIGNIFICANT WEATHER AND/OR OBSTRUCTIONS TO VISIBILITY.


NDZ001>003-009>011-017-280500-
NORTHWEST NORTH DAKOTA

CITY           SKY/WX    TMP DP  RH WIND       PRES   REMARKS
WILLISTON      CLOUDY    32  30  92 SW3       29.77S
MINOT          CLOUDY    34  30  85 NW3       29.77S
MINOT AFB      CLOUDY    31  31 100 N3        29.77S
$$

NDZ018>021-031>035-040>046-280500-
SOUTHWEST NORTH DAKOTA

CITY           SKY/WX    TMP DP  RH WIND       PRES   REMARKS
BISMARCK       MOCLDY    33  31  92 E5        29.79F
DICKINSON      CLOUDY    37  31  78 S6        29.77S
GARRISON         N/A     34  32  92 N3        29.77R
HETTINGER ARPT CLOUDY    32  28  85 N3        29.80F
$$

NDZ004>008-012>016-024-026-027-054-280500-
NORTHEAST NORTH DAKOTA

CITY           SKY/WX    TMP DP  RH WIND       PRES   REMARKS
GRAND FORKS    CLOUDY    32  30  92 S15G26    29.91F
GRND FRKS AFB  CLOUDY    31  30  94 S18       29.90F WCI  19
DEVILS LAKE    CLOUDY    34  32  93 SE14      29.81S VSB 3/4
$$

NDZ022-023-025-028>030-036>039-047>053-280500-
SOUTHEAST NORTH DAKOTA

CITY           SKY/WX    TMP DP  RH WIND       PRES   REMARKS
FARGO          CLOUDY    34  31  88 SE17G26   29.93F
JAMESTOWN      CLOUDY    32  31  96 S12       29.82S
$$




USA.gov is the U.S. government's official web portal to all federal, state and local government web resources and services.